星链-4684 (STARLINK-4684 )

导读

STARLINK-4684是美国SpaceX公司“星链”卫星互联网项目中的一颗低轨通信卫星,于2022年8月28日发射入轨,属于星链大规模组网的一部分。卫星采用平板设计,搭载氪工质霍尔推进器,配备相控阵天线,依托星间激光链路提供高速低延迟宽带服务,服务全球未覆盖传统互联网基础设施的偏远区域,助力星链实现全球互联的目标。

基本信息
目录编号:
53595
目录名称:
STARLINK-4684
国际标识:
2022-104H
轨道中心:
EARTH
卫星名称:
星链-4684
卫星全名:
星链-4684 (STARLINK-4684 )
卫星状态:
在轨 (已飞行1389 天)
发射日期:
2022-08-28 UTC
国别 :
美国 (US)
星等 :
--
轨道信息
数据来源 国际轨道数据 AOE轨道数据
星历时间 2026-06-17T10:37:23+0800
6小时前
查看轨道信息
2026-06-17T00:00:00+0800
16小时前
查看轨道信息
半长轴 6917.876km 6917.879km
偏心率 0.0001635 0.0002117
轨道倾角 53.160° 53.153°
近地点辐角 73.704° 78.986°
升交点赤经 157.725° 159.712°
平近点角 286.413° 35.528°
近地点 538.607km 538.277km
远地点 540.871km 541.207km
周期 95.437分钟 95.438分钟
每日圈数 15.088416 15.088407
详细信息
固有亮度:
5
最大亮度:
2.5
卫星平台:
Starlink v1.5
覆盖范围:
全球
运营商:
太空探索技术公司
运营商所在国:
美国
制造商(研发单位):
太空探索技术公司
制造商所在国:
美国
使用方式:
暂无
卫星简介
星链(Starlink)计划是由太空探索技术公司(SpaceX)提出的一个巨型低轨卫星互联网星座项目,计划在2019年至2024年间在太空搭建由约1.2万颗卫星组成的“星链”网络,其中1584颗将部署在地球上空550千米处的近地轨道,并从2020年开始工作。该卫星仍在工作。
2D轨道图
3D轨道图
轨道高度分析图
轨道倾角分析图
轨道综合分析图
查看轨道综合分析图